TimeEDT,TemperatureF,Dew PointF,Humidity,Sea Level PressureIn,VisibilityMPH,Wind Direction,Wind SpeedMPH,Gust SpeedMPH,PrecipitationIn,Events,Conditions,WindDirDegrees,DateUTC
12:54 AM,57.9,57.0,97,30.04,-9999.0,North,-9999.0,-,N/A,,Unknown,0,2012-10-03 04:54:00
1:54 AM,57.9,57.0,97,30.04,-9999.0,North,-9999.0,-,N/A,,Unknown,0,2012-10-03 05:54:00
2:54 AM,57.9,57.0,97,30.03,-9999.0,North,-9999.0,-,N/A,,Unknown,0,2012-10-03 06:54:00
3:54 AM,57.9,55.9,93,30.04,-9999.0,North,-9999.0,-,N/A,,Unknown,0,2012-10-03 07:54:00
4:54 AM,57.0,55.9,96,30.05,-9999.0,North,-9999.0,-,N/A,,Unknown,0,2012-10-03 08:54:00
5:54 AM,57.0,55.9,96,30.06,-9999.0,North,-9999.0,-,N/A,,Unknown,0,2012-10-03 09:54:00
6:54 AM,57.0,55.9,96,30.06,-9999.0,North,-9999.0,-,N/A,,Unknown,0,2012-10-03 10:54:00
7:54 AM,57.9,55.0,90,30.07,-9999.0,North,-9999.0,-,N/A,,Unknown,0,2012-10-03 11:54:00
8:54 AM,59.0,55.0,87,30.09,-9999.0,North,-9999.0,-,N/A,,Unknown,0,2012-10-03 12:54:00
9:54 AM,59.0,57.0,93,30.09,-9999.0,North,-9999.0,-,0.03,,Unknown,0,2012-10-03 13:54:00
10:54 AM,59.0,57.0,93,30.09,-9999.0,North,-9999.0,-,0.02,,Unknown,0,2012-10-03 14:54:00
11:54 AM,60.1,57.9,93,30.08,-9999.0,North,-9999.0,-,0.02,,Unknown,0,2012-10-03 15:54:00
12:54 PM,61.0,59.0,93,30.08,-9999.0,North,-9999.0,-,0.02,,Unknown,0,2012-10-03 16:54:00
1:54 PM,61.0,60.1,97,30.07,-9999.0,North,-9999.0,-,0.05,,Unknown,0,2012-10-03 17:54:00
2:54 PM,61.0,60.1,97,30.08,-9999.0,North,-9999.0,-,0.03,,Unknown,0,2012-10-03 18:54:00
3:54 PM,61.0,60.1,97,30.08,-9999.0,North,-9999.0,-,N/A,,Unknown,0,2012-10-03 19:54:00
4:54 PM,62.1,61.0,96,30.08,-9999.0,North,-9999.0,-,N/A,,Unknown,0,2012-10-03 20:54:00
5:54 PM,61.0,60.1,97,30.10,-9999.0,North,-9999.0,-,N/A,,Unknown,0,2012-10-03 21:54:00
6:54 PM,61.0,60.1,97,30.11,-9999.0,North,-9999.0,-,N/A,,Unknown,0,2012-10-03 22:54:00
7:54 PM,61.0,60.1,97,30.11,-9999.0,North,-9999.0,-,N/A,,Unknown,0,2012-10-03 23:54:00
8:54 PM,61.0,60.1,97,30.13,-9999.0,North,-9999.0,-,N/A,,Unknown,0,2012-10-04 00:54:00
9:54 PM,61.0,60.1,97,30.13,-9999.0,North,-9999.0,-,N/A,,Unknown,0,2012-10-04 01:54:00
10:54 PM,60.1,60.1,100,30.13,-9999.0,North,-9999.0,-,N/A,,Unknown,0,2012-10-04 02:54:00
11:54 PM,60.1,59.0,96,30.14,-9999.0,North,-9999.0,-,N/A,,Unknown,0,2012-10-04 03:54:00